Showing default

ALPHASAT (I-4A F4), 39215

Orbit data source: Space-Track

ALPHASAT (I-4A F4), 39215 is a UK payload satellite in GEO that was launched on Thu, 25 Jul 2013 UTC via an ARIANE 5ECA launch vehicle from the French Guiana (FRGUI). Payload-class satellites include a variety of spacecraft equipped with specific instruments for various scientific and technological missions. These include communications satellites like Starlink; space stations such as the ISS; scientific satellites like the Hubble; Earth observation satellites from companies like Planet Labs, Umbra, and HawkEye 360; GPS; miniature CubeSats for education and research; and military/defense satellites.

Not visible in the next 10 days
Identifier
39215, 2013-038A
Orbit
GEO
Country
Flag of IMIM
Related business
Manufacturer
Astrium/Toulouse
Mission
Operational Commercial Communications
Bus & Motor
ALPHABUS, S400
Mass
6,650 kg wet, ~3,500 kg dry
Launch date (UTC)
2013-07-25 (13 years ago)
Launch vehicle
ARIANE 5ECA
Launch site
French Guiana (FRGUI)
Object type
Payload
Rocket body
Debris
Shape & HBR
Box + 2 Pan + 1 Dish, 20.0 m
Radar Cross Section
46.013 m², Large (>1 m²)

Expand to show TLE details & history
Last TLE update: 1 day ago

TLE from 1 day ago
0 ALPHASAT (I-4A F4)
1 39215U 13038A   26033.99336140  .00000126  00000-0  00000-0 0  9993
2 39215   2.9752   2.4151 0002294 314.4376 198.7979  1.00274257 42672
Epoch: 2026-02-02T23:50Z
TLE epoch observation values (Epoch: 2026-02-02T23:50:26.424Z)
Latitude
1.35965°
Longitude
24.91755°
Altitude
35,794.431 km
Speed
3.074 km/s
True Right ascension
10h 22m 49s
True Declination
1° 21' 30"
Sunlit
Object was in daylight at epoch
Visualization orbit readout
Latitude
Unknown
Longitude
Unknown
Altitude
Unknown
Speed
Unknown
Apparent Right ascension
Unknown
Apparent Declination
Unknown
Sunlit
N/A
Visualization observer readout
Local Sidereal Time
02:39:05
Azimuth
Unknown
Elevation
Unknown
Doppler factor
Unknown
Orbital elements
Apogee altitude
35,796.641 km
Perigee altitude
35,777.295 km
Semi-major axis
42,165.105 km
Eccentricity
0.00023
Inclination
2.9752°
RAAN
2.4151°
Arg. of periapsis
314.4376°
True anomaly
198.78943°
Mean anomaly
198.7979°
Eccentric anomaly
198.79367°
Mean motion
0.25068 °/min
Orbital period
1,436.11 mins
BSTAR
0
Loading maneuver chart data...
Computing Atmospheric mass density...
Loading historical data...
Loading historical data...
Loading historical data...
Loading historical data...
Loading historical data...
Loading historical data...
Loading historical data...
Other satellites on launch #38 in the year 2013 (2013-07-25 UTC)

Documentation

Showing up to 5 results
|